Home > Weather > Lyon > Past weeks

Flag for France Past Weather in Lyon, Rhône-Alpes, France — Yesterday and Last 2 Weeks

Now
84 °F

Passing clouds.


Feels Like: 84 °F
Forecast: 63 / 82 °F
Wind: 14 mph from Northeast

Location: Lyon / Bron

Current Time: Jul 26, 2016 at 2:14:06 PM

Latest Report: Jul 26, 2016 at 1:30 PM


Visibility: N/A

Pressure: 30.09 "Hg

Humidity: 43%

Dew Point: 59 °F

Location of LyonLocation

Past Weather in Lyon — Graph

°F

Lyon Temperature Yesterday

Maximum temperature yesterday: 86 °F (at 5:00 PM)
Minimum temperature yesterday: 68 °F (at 6:30 AM)
Average temperature yesterday: 77 °F

High & Low Weather Summary for the Past Weeks

 TemperatureHumidityPressure
High93 °F (Jul 19, 4:00 PM)100% (Jul 13, 1:30 AM)30.30 "Hg (Jul 13, 1:30 AM)
Low52 °F (Jul 14, 3:30 AM)15% (Jul 20, 3:00 PM)29.92 "Hg (Jul 11, 4:30 PM)
Average72 °F63%30.10 "Hg
* Reported Jul 11 12:00 PM — Jul 26 12:30 PM, Lyon, Weather by CustomWeather, © 2016

Note: Actual official high and low records may vary slightly from our data, if they occured in-between our weather recording intervals... More about our weather records

Advertising

Lyon Weather History for the Previous 24 Hours

Scroll right to see more
 ConditionsComfort  
Time TempWeatherWind HumidityBarometerVisibility
12:30 PM
Tue, Jul 26
82 °FPassing clouds.12 mph45%30.12 "HgN/A
12:00 PM82 °FPassing clouds.12 mph48%30.12 "HgN/A
11:30 AM82 °FPassing clouds.10 mph48%30.12 "HgN/A
11:00 AM81 °FPassing clouds.8 mph54%30.12 "HgN/A
10:30 AM79 °FPassing clouds.7 mph54%30.12 "HgN/A
10:00 AM79 °FPassing clouds.8 mph54%30.12 "HgN/A
9:30 AM75 °FPassing clouds.5 mph61%30.12 "HgN/A
9:00 AM73 °FPassing clouds.8 mph65%30.12 "HgN/A
8:30 AM73 °FPassing clouds.5 mph61%30.12 "HgN/A
8:00 AM72 °FSunny.7 mph65%30.12 "Hg10 mi
7:30 AM70 °FSunny.3 mph69%30.09 "Hg10 mi
7:00 AM70 °FClear.No wind69%30.09 "Hg10 mi
6:30 AM68 °FClear.No wind73%30.09 "Hg10 mi
6:00 AM68 °FClear.1 mph73%30.09 "Hg10 mi
5:30 AM68 °FClear.2 mph69%30.09 "Hg10 mi
5:00 AM70 °FClear.No wind64%30.09 "Hg10 mi
4:30 AM72 °FPassing clouds.5 mph61%30.09 "HgN/A
4:00 AM72 °FClear.6 mph65%30.09 "Hg10 mi
3:30 AM72 °FPassing clouds.6 mph65%30.09 "HgN/A
3:00 AM72 °FPassing clouds.5 mph65%30.09 "HgN/A
2:30 AM73 °FClear.6 mph61%30.09 "Hg10 mi
2:00 AM73 °FPassing clouds.6 mph61%30.09 "HgN/A
1:30 AM73 °FClear.7 mph65%30.09 "Hg10 mi
1:00 AM73 °FClear.6 mph65%30.09 "Hg10 mi
12:30 AM73 °FClear.7 mph65%30.09 "Hg10 mi
12:00 AM75 °FClear.7 mph61%30.09 "Hg10 mi
11:30 PM
Mon, Jul 25
75 °FClear.5 mph57%30.09 "Hg10 mi
11:00 PM77 °FPassing clouds.5 mph54%30.09 "HgN/A
10:30 PM77 °FClear.6 mph54%30.09 "Hg10 mi
10:00 PM77 °FPassing clouds.3 mph54%30.09 "HgN/A
9:30 PM79 °FPassing clouds.6 mph51%30.09 "HgN/A
9:00 PM81 °FPassing clouds.7 mph48%30.09 "HgN/A
8:30 PM82 °FSunny.12 mph45%30.09 "Hg10 mi
8:00 PM82 °FPassing clouds.12 mph45%30.07 "HgN/A
7:30 PM82 °FPassing clouds.12 mph45%30.07 "HgN/A
7:00 PM84 °FPassing clouds.12 mph43%30.07 "HgN/A
6:30 PM84 °FPassing clouds.13 mph40%30.07 "HgN/A
6:00 PM84 °FPassing clouds.12 mph43%30.07 "HgN/A
5:30 PM84 °FPassing clouds.15 mph37%30.09 "HgN/A
5:00 PM86 °FPassing clouds.12 mph38%30.09 "HgN/A
4:30 PM84 °FPassing clouds.12 mph37%30.09 "HgN/A
4:00 PM84 °FPassing clouds.12 mph40%30.09 "HgN/A
3:30 PM84 °FPassing clouds.13 mph43%30.09 "HgN/A
3:00 PM84 °FPassing clouds.14 mph40%30.09 "HgN/A
2:30 PM82 °FPassing clouds.14 mph42%30.09 "HgN/A
2:00 PM82 °FPassing clouds.14 mph45%30.09 "HgN/A
Weather by CustomWeather, © 2016

See weather overviewHow to use our weather pages